Location: *
(44.3683°N, 6.6958°E)
Time: 20:31:57
(UTC+00:00)

STARLINK-50 - Pass Details

Date: 14 October 2019
Orbit: 549 x 551 km, 53.0° (Epoch: 21 November)

Event Time Altitude Azimuth Distance (km) Brightness Sun altitude
Rises 17:25:08 0° 231° (SW) 2,705 8.2 -6.8°
Reaches altitude 10° 17:27:21 10° 231° (SW) 1,815 7.2 -7.2°
Maximum altitude 17:31:28 81° 145° (SE) 560 3.6 -7.9°
Drops below altitude 10° 17:35:37 10° 58° (ENE) 1,825 5.7 -8.7°
Enters shadow 17:35:59 - 58° (ENE) 1,970 5.9 -8.7°
